Wind_Speed
13 14 15 16 17 17 18 18 19 20 21 22 22 22 23 24 25 26 26 27 28 28 32 33 26 20 12 2 2 3 4 6 6 5 7 10 11 11 12 13 13 13 14 13 12 10 8 6 5 8 7 5 4 3 4 3 4 3 3 3 2 2 3 3 2 4 7 8 7 8 9 8 9 10 9 10 5 4 3 8 10 8 11 16 17 16 17 19
13 14 15 16 17 17 17 18 18 20 20 21 21 21 22 23 24 25 25 26 28 28 31 32 26 18 12 3 3 3 2 5 5 7 12 12 12 12 13 14 14 14 13 13 11 8 6 6 7 8 6 6 4 3 3 3 5 3 3 4 1 4 4 3 2 3 8 10 11 12 9 7 8 10 10 10 8 4 7 11 14 15 19 21 18 18 19 21
13 14 15 16 17 17 17 17 18 19 20 20 20 21 22 23 24 24 25 26 27 28 31 32 25 17 11 5 2 4 2 4 6 10 12 12 12 12 13 13 14 14 13 12 11 9 9 8 8 8 7 6 2 2 2 2 4 1 3 3 4 5 3 3 1 4 9 12 13 11 11 9 5 8 9 9 9 8 13 12 15 20 23 22 20 20 20 22
12 13 14 15 16 17 17 17 17 18 19 19 19 20 21 23 23 23 24 26 27 28 31 31 24 15 11 7 2 4 2 1 6 11 10 10 11 12 12 13 13 13 12 12 11 11 11 9 7 6 7 5 1 2 2 1 3 1 3 2 7 3 1 4 2 5 9 13 11 12 13 9 5 6 7 8 6 7 13 14 16 19 19 18 19 20 21 23
12 13 14 15 16 17 17 16 16 17 18 19 19 20 21 22 22 23 24 25 26 29 31 29 23 14 10 7 3 3 2 2 3 8 8 9 10 10 10 12 12 12 12 12 12 12 11 8 7 5 5 4 1 2 0 3 3 3 1 5 7 3 1 3 2 5 10 13 11 11 10 9 9 5 4 7 6 8 11 15 16 16 16 17 18 20 22 24
12 13 14 14 15 17 17 16 16 16 17 18 19 19 20 21 21 22 23 24 26 30 31 28 20 12 8 8 7 4 1 1 2 5 6 7 8 9 10 11 13 12 13 13 11 10 9 7 6 5 5 4 2 2 2 3 2 3 2 6 6 4 3 2 2 5 9 12 10 10 9 10 10 4 5 7 10 10 11 14 14 14 16 16 18 20 22 24
12 13 14 14 15 16 17 16 15 16 17 17 19 19 20 20 21 21 22 24 26 30 31 26 17 9 6 9 9 6 4 3 2 3 5 6 6 7 9 12 13 13 13 11 9 9 8 7 7 5 6 3 0 2 4 3 3 3 0 5 5 3 2 0 3 5 7 9 10 11 12 11 6 2 4 9 12 10 11 13 13 14 15 16 19 20 21 23
12 13 14 14 15 16 16 16 16 16 16 17 18 19 19 20 20 21 22 24 25 30 31 25 16 7 2 7 7 5 6 4 2 3 3 4 5 6 9 12 13 13 12 9 9 9 7 6 7 5 4 0 1 3 4 6 4 4 3 5 3 0 1 1 2 3 5 6 10 13 12 6 2 1 5 10 12 11 14 14 14 15 15 17 18 19 20 22
12 13 14 14 15 16 16 16 15 16 16 17 18 19 19 19 19 20 22 23 24 30 31 26 17 6 1 2 1 1 3 2 2 3 2 3 3 5 9 11 12 11 9 8 9 10 7 5 6 5 4 1 2 4 3 4 1 1 6 5 3 2 3 3 2 1 0 4 11 14 10 3 3 3 6 9 11 13 15 14 15 15 16 17 17 18 19 21
12 13 14 14 15 16 16 16 16 16 16 17 17 18 18 18 19 19 22 23 24 30 31 25 17 7 2 2 4 2 0 0 3 3 2 2 3 5 8 10 10 10 8 6 8 9 6 4 4 4 3 2 3 4 2 3 1 3 8 8 8 4 4 4 5 5 5 3 13 12 11 5 4 5 5 8 10 15 16 15 15 15 16 15 15 17 18 20
12 13 13 14 15 16 16 16 16 17 17 17 17 18 18 18 19 19 22 23 23 29 30 23 15 7 3 1 3 1 2 2 3 3 1 1 3 6 7 9 10 10 7 5 8 9 7 5 4 3 1 1 5 4 4 4 3 6 8 9 6 7 7 6 7 7 8 3 12 12 13 6 5 5 4 9 10 14 16 16 15 14 15 13 14 16 18 19
12 13 13 14 15 16 16 16 16 17 17 17 17 18 18 18 19 19 21 22 21 28 28 20 11 3 4 3 2 4 5 4 4 2 1 2 4 6 7 8 10 10 7 4 6 9 8 5 3 2 2 4 6 3 3 5 5 6 6 7 2 11 9 5 5 8 7 5 10 11 11 4 5 4 6 9 8 13 16 15 14 14 12 12 13 14 17 18
12 13 13 14 14 16 17 16 17 17 17 18 17 18 18 18 20 19 21 21 20 27 27 17 7 2 2 3 6 7 6 5 4 3 3 3 4 5 6 8 9 9 7 4 6 8 9 6 2 2 4 5 4 4 5 5 5 4 3 4 2 7 7 5 4 8 6 5 8 10 6 2 2 8 4 6 6 14 15 14 12 11 10 11 11 12 15 17
12 13 14 14 14 16 17 17 17 17 18 19 18 19 19 19 20 20 21 19 20 27 24 13 4 1 2 3 8 8 6 5 4 4 5 5 5 6 6 7 8 9 7 4 5 8 10 7 3 4 5 4 5 5 6 4 4 3 3 2 2 1 4 6 3 3 3 4 9 10 5 5 5 2 4 5 12 14 14 12 10 10 9 10 10 11 13 16
13 13 14 14 14 16 16 18 18 18 19 19 19 20 20 21 20 20 19 16 21 26 19 8 3 2 3 5 6 5 3 2 4 5 5 6 7 7 7 8 8 10 8 5 6 8 11 7 3 4 5 6 6 6 6 3 5 3 1 1 1 3 1 6 6 4 3 6 8 8 6 6 8 10 8 14 19 15 15 12 10 10 8 9 9 10 12 14
13 14 14 14 14 15 17 18 18 19 20 20 21 19 21 22 20 20 16 14 22 23 12 5 4 2 3 3 4 4 3 2 3 4 5 7 9 8 8 9 8 10 9 5 6 8 11 8 4 6 6 6 5 5 7 4 4 2 1 3 3 3 4 1 5 6 7 7 6 3 4 6 9 10 9 20 18 16 15 11 10 9 8 8 8 9 11 13
13 14 14 14 14 15 17 18 19 20 20 22 22 20 22 21 20 19 12 12 23 19 5 2 5 0 3 2 3 3 4 5 5 4 6 8 9 9 9 10 8 10 11 7 7 8 9 6 5 5 4 4 4 5 6 5 2 2 4 4 5 5 6 4 2 3 5 6 7 5 5 7 11 8 13 17 15 17 14 11 10 7 7 6 7 9 12 13
13 14 15 14 14 15 17 18 19 21 21 23 22 22 22 18 20 15 7 15 22 13 2 2 7 1 3 1 3 4 7 7 7 6 7 9 10 9 8 9 9 10 10 6 4 6 8 5 5 4 3 2 5 5 4 4 4 6 5 5 7 6 7 7 3 3 4 5 7 6 6 8 12 5 13 13 13 16 13 11 8 6 6 6 8 10 12 13
13 14 15 15 14 15 16 17 19 21 22 23 22 24 21 20 19 5 5 20 17 5 3 6 7 4 1 0 3 5 7 8 7 6 8 9 10 10 8 10 11 10 8 5 5 7 8 5 5 5 3 3 5 3 4 5 5 7 7 7 8 7 7 8 4 5 5 6 6 6 9 10 13 4 10 12 13 15 11 10 7 5 5 6 8 10 12 13
13 14 15 15 14 15 16 17 18 20 22 23 25 24 19 20 16 3 13 24 11 6 9 9 8 6 3 1 4 4 4 6 6 5 8 9 11 12 8 10 11 7 4 4 7 6 5 6 5 3 4 5 5 3 4 5 5 7 8 8 9 10 7 6 4 5 6 5 6 9 12 12 14 5 11 13 12 12 10 8 6 5 5 6 8 10 11 12
13 13 14 14 14 14 15 16 17 19 20 22 24 21 15 13 8 6 19 19 11 15 10 6 7 7 4 2 2 3 2 5 6 7 9 9 10 9 5 8 8 5 4 4 7 6 4 6 2 3 4 5 4 3 4 5 7 7 7 8 8 8 7 7 3 4 4 5 6 10 12 14 14 2 13 12 10 10 8 7 7 6 7 7 7 8 10 12
13 13 14 14 14 14 15 15 16 16 17 19 20 18 13 12 9 9 13 10 15 17 5 3 3 5 5 5 1 2 1 3 5 6 8 8 7 7 6 8 6 6 7 5 6 5 5 4 2 4 3 2 3 3 4 6 7 7 6 7 7 6 8 5 2 3 5 7 7 9 11 14 6 9 12 10 10 9 8 7 7 7 7 7 8 9 12 15
14 13 13 13 14 14 14 14 15 14 16 17 17 16 14 13 13 13 11 8 13 10 3 3 3 3 3 5 2 2 1 4 3 3 8 6 5 5 6 7 7 9 7 4 5 5 7 3 4 2 1 2 4 3 5 7 7 7 5 6 7 6 7 3 0 7 11 6 5 9 10 9 2 11 8 8 10 9 8 7 6 5 5 7 8 10 14 16
14 13 13 13 13 13 13 13 13 13 15 15 14 13 13 13 14 15 11 7 7 5 3 4 6 4 3 4 2 1 2 4 2 4 7 5 5 5 5 5 6 9 4 3 5 7 10 3 4 1 2 2 5 5 6 6 6 6 4 4 6 6 7 7 8 13 11 1 4 8 11 5 7 11 8 8 8 8 7 5 5 4 5 7 9 11 14 16
14 14 13 12 12 12 12 12 11 12 13 13 12 12 12 13 14 15 10 5 5 3 3 4 4 4 5 4 2 1 2 4 4 5 5 4 5 4 5 4 4 8 5 3 5 9 8 2 3 2 2 2 5 7 4 2 6 7 1 2 5 6 8 10 12 12 9 2 5 9 9 4 5 11 10 9 8 9 7 3 4 4 6 8 10 13 15 16
15 14 13 12 12 11 11 11 10 11 12 11 11 11 12 12 14 15 8 3 4 2 3 3 3 3 3 3 2 2 3 3 4 6 3 3 4 4 7 3 1 5 5 3 5 5 2 2 2 1 2 4 6 7 2 2 6 6 2 2 4 6 8 10 12 9 6 7 6 6 6 6 5 7 11 12 10 10 7 4 4 4 7 9 12 14 16 18
15 14 13 11 11 10 9 9 10 10 10 10 10 10 10 11 13 13 6 3 4 2 3 3 3 3 3 1 1 3 2 0 2 4 1 2 5 3 6 5 3 3 1 2 5 1 2 1 1 1 3 5 6 5 1 2 5 3 3 3 5 7 9 10 10 7 7 10 10 6 8 8 8 6 10 13 11 10 6 2 4 5 7 11 14 16 18 21
16 14 13 11 10 10 8 8 9 10 9 8 9 9 9 11 12 9 3 4 2 3 2 3 2 3 3 2 3 4 4 3 2 2 2 3 5 1 5 7 7 5 1 2 6 1 2 1 1 1 3 4 4 2 3 1 4 2 5 4 5 7 9 9 8 8 8 9 8 6 6 6 7 4 10 11 10 9 4 2 4 6 10 14 16 18 20 23
15 15 13 11 10 9 8 7 8 8 8 7 8 7 8 10 9 3 2 3 0 3 2 2 2 2 1 3 5 6 4 3 2 1 1 3 4 2 5 4 4 5 2 6 8 4 2 2 1 1 3 4 2 4 3 0 2 3 4 6 7 8 8 8 7 8 7 6 9 9 7 7 7 4 7 8 9 7 1 2 4 8 12 15 17 19 23 26
16 15 14 12 11 10 8 8 8 8 6 6 5 5 8 8 4 2 4 3 0 1 2 3 2 1 2 5 5 7 5 4 2 1 2 3 3 3 4 4 2 5 5 7 9 7 0 2 1 2 3 2 2 3 2 1 3 5 5 7 7 7 7 7 6 6 6 6 6 6 7 6 6 4 5 4 3 3 1 3 5 9 13 15 18 22 25 26
16 15 15 13 11 10 9 9 9 7 5 5 4 4 6 4 1 3 4 0 1 1 3 3 1 0 2 3 3 4 3 4 3 2 4 3 3 4 3 4 2 3 6 6 6 5 3 3 2 2 1 1 2 3 2 3 5 5 5 5 6 6 6 5 4 2 5 6 1 5 4 5 7 4 2 4 5 5 2 4 5 9 13 18 21 24 25 25
17 16 15 14 12 10 9 9 8 6 5 4 2 3 5 2 4 6 4 1 0 2 3 1 2 0 0 0 3 3 2 3 3 2 3 0 2 4 2 2 2 3 6 3 1 2 4 4 3 3 2 3 3 3 3 4 5 5 4 3 5 6 5 4 3 3 6 5 3 7 3 4 10 9 4 7 7 4 4 5 6 10 16 21 23 25 25 25
17 17 16 15 13 12 10 10 8 6 4 2 2 3 3 3 5 4 3 2 0 1 1 1 2 1 1 2 5 2 1 3 4 2 0 1 3 3 1 1 0 3 5 4 5 5 3 2 5 4 3 4 5 4 3 3 3 3 2 2 3 4 5 6 5 5 6 4 4 4 4 6 9 9 7 8 8 5 5 7 8 12 18 20 22 24 25 25
17 17 17 16 15 13 12 10 8 6 4 4 5 4 4 6 5 0 3 4 0 1 2 2 1 2 4 6 4 1 2 4 3 2 1 3 3 4 3 4 5 3 4 5 6 5 6 3 4 4 2 4 5 3 3 2 1 1 1 2 3 4 4 6 5 6 7 7 4 2 3 5 5 3 7 10 8 5 5 7 9 15 18 20 22 24 24 25
17 17 17 17 16 15 13 11 9 7 6 7 6 5 6 7 4 1 4 2 1 1 2 2 2 4 7 8 3 3 4 3 3 3 4 5 5 5 4 5 7 6 3 4 3 1 7 6 3 2 1 2 3 0 2 2 1 2 1 0 2 2 4 5 7 7 7 9 8 4 3 4 3 4 12 10 6 4 4 8 11 17 20 21 22 23 24 25
16 17 18 18 16 16 14 13 10 8 8 8 6 7 8 7 4 2 2 1 1 1 1 2 5 6 7 5 4 4 4 2 3 3 4 7 8 7 4 3 7 9 6 4 2 1 5 4 5 4 1 2 0 1 1 3 1 2 2 2 1 3 2 5 8 4 2 7 6 5 5 6 4 4 9 8 4 2 5 9 13 18 21 21 21 22 24 26
16 17 19 19 17 16 15 14 11 10 11 9 8 9 7 6 8 6 2 3 1 0 3 5 4 4 5 4 4 6 4 2 4 4 2 4 5 6 7 3 6 11 7 3 2 1 2 3 4 5 2 2 1 1 1 2 2 1 2 1 3 3 1 2 4 3 3 9 6 5 8 8 6 3 6 8 3 3 7 10 14 19 21 21 21 23 26 29
18 19 20 21 20 18 16 14 12 13 11 8 10 11 7 6 9 7 5 5 2 3 4 7 4 4 5 6 5 6 7 2 4 5 3 3 3 5 8 5 6 8 5 2 2 1 1 3 3 2 1 3 2 2 3 1 1 1 0 1 1 1 2 3 2 3 6 8 7 6 8 7 7 4 4 6 3 7 9 11 14 18 20 21 23 26 29 31
20 17 16 20 22 21 18 15 14 15 11 7 10 10 7 9 12 10 9 6 3 4 5 8 7 6 7 7 4 4 8 6 5 4 4 4 4 7 10 6 6 7 5 5 2 0 1 3 2 1 2 3 3 4 6 5 3 3 0 1 1 1 3 3 2 2 5 7 7 8 8 4 4 2 4 2 6 8 9 12 14 16 20 23 25 28 32 34
20 12 11 16 19 20 19 16 15 13 9 8 11 7 3 6 10 11 13 11 6 6 7 7 8 9 9 9 7 5 7 8 8 7 5 5 4 6 10 7 6 8 5 3 1 0 2 4 3 1 1 2 4 4 5 5 5 5 5 5 4 2 2 3 3 2 3 6 6 8 9 5 3 4 1 4 7 5 9 14 14 17 22 24 26 30 32 35
18 8 9 14 15 17 18 15 12 10 7 8 11 9 4 4 7 10 15 16 12 10 9 8 9 10 9 8 8 6 6 7 8 8 5 6 7 6 9 10 10 11 7 2 2 2 2 3 3 2 3 5 4 1 2 3 2 5 6 6 6 6 5 4 5 3 2 4 5 6 11 8 2 2 3 5 3 4 11 15 15 19 24 24 27 31 33 34
16 8 8 13 15 16 17 11 8 8 8 9 8 9 6 5 6 9 13 14 11 9 7 7 9 9 8 9 8 6 6 7 7 7 6 9 10 5 5 11 15 15 9 2 1 1 1 0 4 5 4 4 2 2 2 3 3 3 5 5 5 6 7 6 6 3 2 6 6 5 11 8 4 4 2 1 2 7 14 17 17 20 23 24 28 32 33 34
15 10 9 12 17 21 16 7 7 8 7 7 6 9 9 6 6 9 11 10 7 6 7 7 8 9 8 8 9 9 7 6 7 9 8 9 7 0 4 13 17 13 6 1 1 2 2 1 3 5 3 3 3 1 1 0 2 4 5 7 6 6 7 7 5 2 2 7 6 4 11 7 5 5 4 4 5 12 16 18 19 21 22 25 30 32 33 35
14 13 11 13 20 24 15 6 8 10 9 7 8 11 10 7 9 11 10 11 11 7 7 7 7 9 9 7 9 11 8 5 7 9 8 8 3 3 5 15 17 9 3 2 4 7 5 2 3 3 4 3 3 3 3 4 5 5 6 8 8 8 7 4 2 1 3 7 8 7 11 9 1 3 5 6 9 14 17 19 19 19 22 26 29 31 33 35
11 10 10 15 24 26 16 9 8 9 10 11 12 14 11 7 11 17 14 14 17 13 7 5 6 9 8 5 7 10 9 9 8 4 3 4 2 2 4 11 11 5 2 2 5 8 5 3 5 5 6 7 5 3 3 4 5 5 6 10 11 11 11 6 2 5 6 7 10 11 11 11 7 6 9 12 13 15 17 19 18 19 23 26 28 30 33 35
9 7 5 8 19 25 20 16 12 8 8 12 12 12 15 12 10 17 19 18 20 19 11 4 4 6 6 6 6 10 11 12 10 5 2 4 2 1 3 7 5 3 4 3 5 6 2 3 7 10 10 10 7 3 2 5 5 6 8 13 13 13 13 8 4 7 8 7 11 13 12 15 15 14 16 15 14 15 15 16 18 20 24 27 29 31 33 34
9 6 8 8 10 16 19 18 16 10 6 10 9 7 15 16 8 12 20 17 15 17 12 6 7 8 8 9 7 9 11 11 12 11 7 4 4 2 2 4 3 2 3 3 3 3 1 4 8 13 15 13 11 7 2 6 7 9 10 13 15 14 13 11 10 10 7 6 12 11 11 15 16 15 16 14 14 15 13 14 18 22 25 28 31 33 34 34
15 6 14 18 10 8 11 15 17 15 12 11 10 10 15 17 13 12 14 10 8 13 10 9 14 17 15 12 8 8 9 7 9 12 8 4 5 4 3 2 1 3 3 2 2 2 2 5 7 10 14 14 12 11 7 7 9 11 11 13 15 16 15 15 17 15 11 11 14 12 12 16 16 16 17 15 15 14 13 16 20 23 26 30 32 33 33 32
22 9 12 21 18 11 11 16 20 21 20 15 13 15 17 20 21 15 8 6 5 12 13 13 14 16 18 17 11 11 9 6 10 14 8 6 5 5 3 1 3 6 5 2 2 2 2 4 5 7 12 13 12 12 10 10 12 12 14 16 15 16 18 19 20 20 19 20 19 18 21 21 17 16 17 16 15 13 14 18 21 23 26 30 32 32 31 31
28 19 14 16 18 18 13 14 18 16 17 17 16 15 16 23 26 18 9 10 8 8 14 21 18 12 16 18 16 17 17 14 16 15 8 8 4 4 4 2 5 8 7 4 2 3 4 2 2 3 8 10 10 11 11 12 14 15 17 17 16 17 19 20 19 19 19 21 22 22 22 19 16 16 15 14 13 13 14 18 21 23 26 30 31 30 29 31
39 32 22 12 10 16 16 13 13 11 12 16 16 13 15 24 25 17 11 18 20 12 13 20 19 11 12 17 19 22 21 13 8 6 12 11 6 8 7 5 9 9 6 6 4 3 4 2 2 1 6 7 6 9 11 11 13 18 21 18 17 18 18 17 17 17 16 18 20 19 16 13 12 11 11 12 13 13 14 17 20 22 26 29 28 26 27 31
46 39 31 18 8 12 16 13 13 15 12 11 14 16 18 20 19 15 12 17 25 24 19 19 15 10 13 18 19 17 11 8 10 11 15 11 7 10 9 10 15 12 7 7 5 4 5 3 2 3 4 4 1 2 4 6 9 14 13 15 19 21 20 17 15 16 17 16 14 12 11 10 9 8 10 12 11 11 14 16 18 21 25 27 24 23 27 30
Wind_Direction
18 14 11 10 9 8 6 4 2 359 357 356 354 353 351 350 352 354 354 354 352 353 355 1 4 359 2 344 195 135 97 64 35 6 20 27 19 6 3 4 6 2 0 5 6 11 2 348 339 327 318 296 283 301 312 337 339 291 252 268 290 80 79 46 9 339 314 306 327 344 351 348 330 338 349 336 311 264 325 42 40 30 21 13 13 6 10 19
11 9 8 7 7 8 7 6 3 359 356 354 352 350 348 347 350 352 352 352 351 352 354 0 4 0 4 2 208 176 109 54 19 10 28 21 4 1 1 2 5 3 6 7 6 10 359 340 332 331 313 281 280 304 299 321 320 294 286 284 51 62 61 46 36 329 306 303 320 329 341 343 329 331 348 350 337 8 43 39 21 5 1 3 14 13 16 23
6 6 6 6 7 7 7 7 4 0 355 353 351 347 346 346 348 351 351 352 352 353 355 0 4 2 7 22 179 186 142 57 23 12 17 10 4 6 5 8 9 9 12 8 4 3 355 345 340 341 315 286 264 299 288 305 309 325 306 289 83 56 78 99 17 303 296 303 314 321 326 324 329 328 344 343 326 34 53 27 8 360 354 358 17 21 18 21
3 3 4 5 6 5 5 5 4 1 355 352 349 345 344 344 347 349 351 353 353 355 357 0 5 4 7 23 105 178 176 106 22 7 6 7 10 15 18 21 18 15 12 7 6 359 353 348 340 336 307 285 203 258 263 3 339 346 300 357 82 38 138 116 348 297 293 300 307 314 316 323 347 323 338 345 329 54 50 22 8 357 358 12 27 27 24 26
1 1 1 3 5 4 3 3 3 360 355 351 347 345 344 345 346 348 350 353 354 356 358 0 3 6 8 21 78 153 204 220 10 2 2 9 13 29 34 28 21 12 6 4 3 357 354 344 319 310 297 294 295 260 186 55 341 278 253 75 77 23 65 98 327 290 294 299 301 308 315 329 330 324 4 3 21 59 38 17 8 8 24 35 38 36 34 35
358 358 358 0 3 2 0 1 1 358 355 351 347 345 345 346 346 347 349 351 353 354 357 0 1 5 15 39 75 121 208 289 15 358 6 16 20 37 36 25 17 9 6 6 1 352 352 342 323 325 307 296 309 306 5 46 317 280 133 94 75 35 43 66 308 281 290 300 304 314 320 315 314 353 45 41 57 54 37 24 22 39 47 45 44 42 40 39
355 354 354 357 359 358 358 359 358 355 353 351 347 346 347 348 347 348 348 348 352 352 356 2 2 1 30 64 75 89 86 65 38 16 26 27 28 39 27 18 13 9 9 9 5 352 349 345 342 337 297 279 145 322 345 326 260 254 124 91 88 40 29 351 290 279 290 303 307 311 301 297 311 18 68 69 54 46 52 47 51 59 53 51 49 44 43 39
351 350 352 353 355 354 353 355 356 353 351 351 348 345 348 349 348 349 347 348 350 350 356 4 5 0 58 82 79 81 71 58 66 52 39 33 38 35 19 15 10 7 10 13 15 2 354 349 346 335 294 304 54 310 337 312 241 211 309 46 91 251 96 194 257 279 295 309 311 305 294 302 20 57 104 70 43 61 73 63 68 66 58 56 49 44 41 37
347 347 349 351 352 350 349 351 354 352 348 350 348 345 348 350 349 349 347 348 349 351 356 3 8 0 254 114 154 141 49 34 95 82 54 48 36 17 12 12 5 6 12 13 15 6 360 346 340 337 307 349 350 315 326 305 214 171 315 338 296 247 146 194 188 159 243 338 323 309 306 13 98 168 116 65 46 82 85 75 77 68 64 58 50 45 39 36
342 344 346 348 349 347 345 346 351 350 345 347 348 345 347 349 348 347 347 347 348 351 355 360 6 0 320 230 233 233 67 177 127 99 73 54 2 355 2 4 3 10 16 11 10 7 5 344 334 336 300 252 291 285 267 280 324 336 306 297 274 227 148 167 153 145 147 15 336 318 313 331 175 201 134 63 56 96 91 81 80 69 67 59 51 46 37 37
337 340 342 345 347 347 344 343 347 348 343 344 346 345 346 347 347 344 345 345 345 350 353 357 357 359 51 174 245 210 176 175 119 94 56 5 333 337 343 354 4 11 15 11 2 1 3 355 346 338 296 277 285 253 208 236 286 313 305 297 255 167 142 150 147 162 168 359 339 316 306 290 198 202 116 50 49 99 94 81 77 68 66 57 51 45 37 36
332 335 337 341 345 347 344 341 343 343 341 340 341 344 344 345 346 343 342 341 342 346 349 355 349 358 85 83 91 132 165 138 96 87 23 340 318 320 332 348 0 6 12 13 356 358 359 353 355 331 295 305 298 267 216 225 270 289 286 301 189 138 141 154 143 170 179 350 334 309 303 240 177 142 89 31 48 101 90 80 76 68 65 56 50 44 38 35
330 332 333 336 342 346 344 342 340 339 338 334 335 340 340 342 344 342 340 337 338 342 345 353 340 239 91 76 120 138 142 102 76 57 29 358 320 310 329 344 352 358 3 9 358 359 357 346 332 273 266 295 300 290 285 252 250 250 229 279 222 138 152 158 128 165 174 350 331 321 325 268 142 127 107 7 92 107 87 85 80 73 68 57 50 44 40 35
328 330 331 331 339 343 343 342 340 338 334 331 331 334 335 338 340 339 337 333 335 339 342 353 354 182 82 118 146 140 124 89 46 21 9 353 334 312 325 341 346 352 354 358 356 357 357 349 308 253 243 283 305 285 275 218 199 210 161 208 221 92 144 141 105 158 189 338 341 338 323 303 331 38 359 49 117 111 93 94 86 78 69 56 50 42 39 34
327 330 330 329 335 339 341 341 340 339 335 331 329 330 334 334 335 337 334 330 334 338 341 359 41 118 103 141 169 171 155 74 18 6 351 347 338 316 323 337 338 349 348 336 345 353 356 350 283 268 266 271 283 280 277 215 184 200 185 224 18 8 82 123 98 67 24 349 355 352 315 302 318 331 14 101 120 112 103 101 90 82 68 55 47 38 34 28
324 327 329 329 332 335 338 339 340 340 337 334 332 332 333 330 332 334 329 326 334 338 341 23 56 136 137 155 208 218 218 261 323 338 340 340 334 315 320 338 337 345 341 317 332 345 351 346 263 268 275 263 281 298 307 289 197 179 357 337 337 330 322 99 108 71 42 4 348 334 290 294 310 340 74 116 118 112 112 107 96 84 67 55 42 33 26 19
319 324 327 329 330 332 336 337 339 339 338 337 335 334 334 331 331 329 319 326 338 341 336 30 23 294 185 215 222 221 247 246 255 300 329 330 328 313 318 340 333 337 336 306 315 340 343 325 256 269 247 232 330 336 320 312 275 312 344 331 310 309 308 291 157 102 64 9 319 274 251 277 308 355 106 123 117 118 116 107 102 84 71 55 38 28 18 14
315 320 324 327 329 330 333 336 338 339 339 339 336 336 337 333 331 323 299 329 341 350 335 359 360 299 178 179 201 240 258 239 242 277 315 323 327 315 314 339 330 329 330 296 307 344 333 294 235 270 248 231 2 354 319 323 315 305 313 313 300 296 286 277 274 106 77 340 300 277 270 287 309 357 118 124 118 118 111 110 108 82 75 46 31 22 13 10
310 317 320 324 327 328 332 336 339 340 340 339 337 338 341 342 341 322 293 336 347 9 320 320 325 281 248 12 227 269 261 232 240 276 316 324 333 326 314 337 333 316 307 301 338 342 330 304 245 270 304 344 358 347 313 316 308 295 292 287 283 288 278 274 296 89 68 324 288 292 300 300 309 315 132 128 118 115 111 115 104 82 74 37 29 17 7 3
305 313 316 321 323 326 331 335 340 341 342 344 345 348 353 352 353 333 324 337 346 334 311 289 282 265 294 289 230 282 253 229 243 278 315 325 339 337 325 333 323 290 291 332 330 324 322 305 278 308 345 341 334 316 310 302 292 288 283 280 280 286 285 291 310 102 75 334 284 298 304 302 307 297 141 135 122 116 117 114 99 83 62 34 24 10 2 354
301 308 312 317 319 324 329 335 341 342 345 349 352 1 12 2 355 322 329 333 319 321 314 261 259 233 228 198 214 310 233 240 252 265 307 330 340 344 343 331 312 292 352 344 288 276 288 290 305 48 0 331 320 296 299 289 287 285 280 289 290 289 304 317 318 113 55 332 291 302 307 305 304 214 143 141 128 119 114 104 88 66 45 30 15 1 355 349
297 303 309 312 315 322 327 335 339 342 346 348 355 9 13 0 349 331 330 311 300 314 307 239 250 203 211 197 217 335 209 249 244 259 308 331 338 345 338 325 318 322 338 321 287 285 294 291 81 54 10 306 262 252 283 282 281 283 284 291 290 314 336 322 136 90 339 309 302 315 311 305 300 141 146 147 127 115 108 94 77 58 40 22 10 1 354 353
293 298 304 307 312 318 323 332 336 339 343 348 359 6 1 353 345 339 333 294 291 302 269 217 182 177 213 194 234 327 243 259 236 289 318 334 342 329 322 327 327 318 312 312 329 315 297 324 78 54 115 236 255 243 273 278 277 277 282 289 291 335 350 310 146 340 321 309 321 316 301 300 127 134 144 140 128 124 118 103 93 76 42 22 11 5 360 356
288 293 298 302 308 313 319 327 331 335 343 351 0 360 355 349 339 340 335 286 271 280 252 211 188 201 199 190 268 322 248 267 260 309 322 350 352 314 319 348 326 310 312 349 326 280 278 319 71 103 168 263 284 275 277 284 294 288 278 288 302 336 333 301 310 320 312 314 47 340 308 289 153 160 163 144 144 142 133 115 108 92 41 26 14 6 358 351
282 287 291 297 301 308 314 321 325 332 341 350 355 354 351 345 338 341 337 274 255 249 214 196 191 208 206 217 275 325 275 262 250 284 313 354 4 346 329 335 302 307 332 8 304 276 276 350 73 188 211 273 288 289 300 326 297 296 46 39 340 331 314 308 317 325 316 282 52 18 326 291 174 185 173 155 169 159 153 151 114 64 35 25 8 360 351 346
277 281 285 289 294 301 311 317 318 327 339 346 352 352 346 342 337 339 340 267 252 168 152 178 183 192 205 229 268 268 264 228 249 282 303 10 24 11 324 312 182 304 332 346 298 285 282 72 73 252 273 287 282 282 314 48 297 295 60 30 344 315 306 317 320 325 316 294 332 357 295 278 273 226 172 162 179 169 161 148 98 43 30 18 358 353 348 347
272 275 277 281 286 292 304 311 308 321 337 342 347 347 342 340 336 339 346 258 248 133 127 163 174 195 195 208 243 238 270 272 270 273 175 22 9 8 304 293 270 279 15 340 293 280 123 147 209 270 291 281 282 284 48 30 292 303 36 345 328 316 304 312 311 302 299 299 302 278 245 259 283 256 167 164 180 175 171 134 72 40 17 2 354 353 350 351
267 267 268 272 276 281 289 294 299 314 327 334 341 340 338 334 329 336 325 274 258 116 124 143 164 207 201 272 244 229 303 330 282 239 165 308 335 336 267 288 298 296 95 261 279 336 66 6 256 285 286 276 294 354 62 351 259 334 20 324 297 295 284 287 290 290 297 303 292 260 224 240 272 237 158 170 197 195 180 66 42 22 7 357 354 352 350 351
262 261 262 263 265 269 275 279 290 304 311 327 336 333 334 328 325 335 264 276 132 126 123 136 167 182 198 292 235 217 269 282 262 293 217 290 310 268 269 299 313 297 248 232 259 284 39 42 17 314 279 281 9 64 59 337 254 338 339 282 261 252 258 266 270 290 300 287 274 256 216 230 274 252 180 193 213 214 224 28 19 6 1 356 352 350 349 348
257 257 256 256 258 260 266 275 280 289 305 325 330 330 328 318 309 270 244 254 89 111 113 148 173 166 252 269 221 192 216 224 231 307 226 250 271 247 267 284 276 272 256 236 250 260 149 94 202 243 278 305 64 81 55 337 292 307 290 275 272 258 263 266 262 289 291 271 266 231 197 227 273 263 224 217 175 152 352 338 357 359 354 352 351 350 348 343
254 253 250 251 252 253 262 272 275 282 299 314 324 323 314 300 229 255 251 256 2 143 138 163 161 348 258 277 243 197 217 221 183 240 247 220 228 226 234 253 236 247 251 236 235 235 213 213 196 155 264 292 155 203 217 240 268 278 267 289 306 293 288 272 244 233 251 264 280 126 149 232 246 247 189 128 110 101 48 344 351 352 348 351 351 347 342 335
252 249 247 246 246 246 253 261 266 276 288 299 311 294 295 272 220 237 226 93 324 184 157 132 97 88 176 355 265 243 272 254 174 209 273 65 255 251 238 260 293 298 274 259 250 244 222 203 139 105 171 202 210 219 207 216 238 250 255 304 319 308 306 277 240 230 250 259 129 114 78 263 248 263 243 153 131 115 67 22 2 355 350 350 348 340 334 330
250 247 244 242 243 243 244 250 254 262 273 252 200 237 269 260 242 229 202 200 342 108 106 90 119 141 126 264 261 221 170 244 189 161 169 129 255 253 207 190 212 280 279 298 313 289 268 143 138 149 161 184 216 236 239 219 205 226 256 319 302 302 305 287 283 279 268 258 141 102 1 294 268 273 235 169 135 107 58 27 6 358 351 346 340 332 329 329
247 246 245 241 241 241 240 244 244 247 245 201 207 228 225 238 251 304 222 222 72 86 124 100 134 183 207 239 254 172 216 240 175 155 194 182 220 237 223 194 184 224 261 281 295 277 268 272 165 173 148 160 201 241 315 336 111 182 15 342 263 258 265 277 305 302 293 296 276 272 307 279 301 3 125 135 132 115 45 13 358 353 346 339 333 328 328 328
248 247 244 242 241 239 238 240 236 231 214 195 211 227 220 234 246 253 247 231 100 190 157 142 216 250 245 234 201 161 232 244 135 168 216 203 229 255 241 193 185 197 211 240 279 238 247 254 124 101 30 153 190 177 347 308 198 144 87 199 241 251 254 269 296 297 302 305 281 229 224 252 284 97 118 129 149 145 13 355 351 345 339 333 330 327 328 327
255 253 248 245 241 239 237 235 229 218 203 201 219 227 226 239 240 220 217 145 140 210 328 248 219 247 268 237 183 169 205 229 167 203 225 211 236 246 218 156 174 191 198 223 254 230 254 252 119 122 61 81 64 348 328 294 264 154 166 193 93 50 327 274 286 299 298 287 270 202 239 267 258 168 141 146 165 199 329 346 346 338 334 331 329 328 327 326
259 263 257 248 240 239 237 231 225 211 201 207 228 231 230 239 236 230 170 122 126 110 298 280 216 217 264 263 227 180 168 219 189 198 240 202 225 220 189 164 173 191 201 225 247 212 267 268 163 162 164 96 33 297 197 311 309 213 195 170 99 82 65 235 270 305 266 268 266 229 258 272 270 254 162 166 193 321 330 343 340 332 333 331 328 328 327 326
260 268 264 252 241 237 234 230 218 201 198 214 237 240 238 229 224 213 155 136 150 158 224 256 219 193 241 266 262 164 152 208 184 187 238 215 206 178 170 178 182 188 173 133 228 234 2 266 204 151 124 127 147 234 191 196 1 58 347 2 131 228 227 181 207 276 270 273 280 272 275 264 250 255 159 179 280 336 333 336 334 330 334 333 330 329 327 327
257 263 262 251 243 238 234 227 206 192 199 221 236 239 233 229 227 206 175 168 172 178 221 245 229 225 237 243 260 157 167 220 220 206 226 215 205 167 165 177 176 176 155 138 191 271 115 240 230 41 52 120 170 223 211 198 139 105 86 227 155 250 249 232 220 249 266 279 288 290 295 275 233 198 134 208 324 338 330 332 332 331 333 332 330 329 328 328
248 248 250 240 238 237 226 213 196 191 208 228 230 235 204 217 225 205 197 202 199 205 233 245 225 235 249 241 249 232 209 230 233 231 221 205 225 188 173 173 156 153 142 126 217 3 160 217 228 50 72 150 193 209 220 217 178 173 204 205 190 178 205 254 253 193 237 269 278 286 289 276 139 111 112 315 330 334 329 332 329 328 330 330 329 328 328 328
234 237 245 224 226 226 205 192 192 198 222 231 231 238 218 207 217 198 203 214 219 222 236 250 236 239 254 248 246 236 229 242 228 227 233 211 230 224 177 165 151 144 130 109 220 210 178 208 225 209 197 208 209 114 345 304 226 200 205 200 208 203 188 231 242 190 163 244 246 268 280 274 168 139 306 317 322 323 329 330 327 326 327 328 328 327 327 326
219 233 242 215 214 204 183 185 203 201 223 230 229 236 217 208 216 193 191 205 222 231 233 249 245 239 247 251 255 242 234 251 222 208 235 225 225 236 163 156 151 146 142 127 195 182 74 65 235 238 219 194 175 53 9 324 310 272 240 220 224 214 191 208 233 210 169 232 232 249 273 274 139 146 258 242 252 313 328 328 326 324 325 326 325 324 325 323
211 225 227 207 203 190 179 202 213 202 228 231 232 236 214 202 210 196 188 192 209 223 220 232 228 225 233 231 243 246 230 237 224 207 232 238 221 111 124 154 151 144 144 145 127 130 97 98 222 248 255 137 135 140 82 281 250 261 243 219 219 215 198 210 237 277 268 234 216 228 257 260 107 126 184 194 272 313 325 327 325 322 322 325 324 323 324 323
217 226 220 204 193 186 189 224 215 216 233 222 232 236 221 221 218 205 194 189 193 201 217 232 218 218 229 210 221 236 210 207 232 217 224 234 186 89 141 161 160 159 169 170 160 161 168 178 172 220 257 217 184 202 199 188 201 228 228 203 200 203 198 209 245 266 260 231 209 222 252 260 93 124 197 237 291 314 322 323 324 322 321 323 323 322 323 322
219 222 216 203 192 189 203 229 228 239 234 223 237 232 220 231 217 210 213 209 207 205 207 229 207 204 215 198 220 234 208 212 238 216 198 219 152 96 169 171 170 173 136 116 154 167 182 215 182 194 233 230 231 241 203 185 189 213 218 201 199 201 194 184 190 219 233 230 218 224 248 265 271 261 261 277 298 310 316 319 321 320 319 321 322 321 321 320
210 206 194 181 191 203 221 232 235 256 243 232 245 236 224 232 213 203 214 225 223 213 207 218 192 196 206 187 219 240 220 217 229 233 219 197 165 95 181 183 184 150 120 126 153 165 207 265 221 226 237 240 262 304 118 155 185 201 204 201 202 204 197 187 203 225 229 249 246 237 246 266 273 274 276 287 302 307 313 319 318 318 318 319 321 321 321 320
214 208 187 163 185 215 228 232 230 239 245 233 242 247 235 236 229 202 206 218 224 213 215 225 193 195 206 190 210 244 224 209 219 234 237 179 131 79 145 170 189 152 131 148 156 150 224 247 230 238 246 254 277 294 175 177 216 226 218 214 212 205 196 197 217 222 208 241 256 246 242 259 270 275 279 292 307 308 315 318 316 318 318 319 322 322 321 320
218 209 192 190 198 216 216 218 217 223 236 234 234 254 248 241 243 223 199 197 213 202 205 231 215 209 214 203 207 242 225 200 216 228 222 166 134 125 120 121 214 189 136 136 193 164 243 252 230 235 250 256 265 268 244 230 246 243 234 232 225 212 201 206 222 223 208 226 253 266 267 267 272 277 284 298 306 306 312 314 314 316 317 320 322 320 320 321
218 219 191 194 212 232 212 195 195 210 227 228 229 241 242 240 244 236 189 153 222 209 201 230 227 206 211 216 217 232 221 187 224 231 201 164 161 143 139 184 205 195 170 144 223 206 226 260 228 233 259 261 253 256 258 258 262 257 246 241 234 224 217 218 225 225 225 237 252 265 271 271 272 275 284 294 299 302 308 310 312 316 317 321 321 318 319 323
212 212 191 187 218 238 225 189 183 202 220 219 226 232 229 236 240 235 196 175 204 204 197 225 236 199 203 219 218 230 229 213 236 242 179 151 173 158 171 185 159 173 179 169 205 222 213 215 145 220 265 262 245 243 249 257 262 263 257 246 236 235 233 232 231 226 230 243 251 257 264 268 268 271 281 291 297 306 309 309 313 316 318 320 318 317 319 321
218 218 208 193 222 229 221 207 195 209 224 217 220 223 224 233 232 230 226 211 213 206 183 212 231 216 215 227 224 235 239 224 238 227 159 159 179 174 180 165 146 157 177 179 182 199 210 215 109 159 264 268 245 234 244 264 274 268 261 245 232 232 233 235 233 224 224 235 245 252 254 258 265 273 286 296 300 305 306 310 315 314 315 316 313 314 317 319
218 222 218 213 231 222 217 220 214 221 233 216 208 212 221 230 222 216 236 227 216 217 211 212 219 215 231 238 232 235 224 145 106 121 150 155 150 166 179 170 165 166 166 173 180 178 189 204 164 173 250 282 224 193 252 292 287 271 252 224 221 227 231 235 235 227 223 224 236 247 245 251 273 287 294 296 297 301 305 311 313 309 310 311 309 311 317 319
Height
1558 1557 1556 1555 1554 1552 1550 1549 1548 1546 1544 1543 1542 1540 1539 1537 1535 1533 1531 1529 1527 1525 1524 1522 1520 1518 1517 1516 1516 1516 1516 1517 1517 1517 1516 1517 1517 1516 1516 1515 1514 1513 1512 1511 1511 1511 1511 1511 1511 1510 1510 1509 1508 1509 1508 1508 1509 1508 1506 1504 1501 1500 1504 1506 1504 1504 1502 1499 1498 1500 1502 1502 1501 1500 1501 1500 1499 1500 1500 1501 1503 1504 1505 1506 1505 1503 1502 1500
1558 1557 1556 1555 1553 1552 1551 1549 1548 1546 1545 1544 1542 1541 1539 1537 1536 1534 1532 1529 1527 1525 1524 1522 1520 1518 1517 1516 1516 1517 1517 1517 1518 1517 1517 1518 1518 1517 1516 1515 1514 1513 1512 1511 1511 1511 1511 1512 1511 1510 1510 1509 1508 1508 1508 1509 1508 1508 1504 1502 1502 1503 1506 1506 1505 1505 1502 1500 1500 1501 1503 1504 1502 1501 1501 1500 1498 1498 1499 1502 1503 1503 1502 1504 1504 1502 1501 1499
1558 1557 1556 1555 1554 1552 1551 1550 1548 1547 1545 1544 1542 1541 1539 1538 1536 1534 1532 1530 1527 1526 1524 1522 1520 1518 1517 1517 1516 1517 1518 1518 1518 1518 1518 1519 1518 1518 1517 1516 1514 1514 1513 1512 1511 1511 1510 1510 1510 1510 1510 1508 1508 1508 1508 1509 1508 1508 1506 1502 1504 1506 1506 1507 1508 1507 1505 1503 1502 1503 1504 1503 1503 1503 1502 1501 1498 1498 1502 1504 1504 1503 1502 1503 1502 1501 1500 1498
1558 1557 1556 1555 1554 1552 1551 1550 1549 1547 1546 1544 1542 1541 1539 1538 1536 1534 1532 1530 1528 1526 1524 1522 1520 1519 1518 1517 1517 1518 1518 1518 1519 1520 1519 1519 1518 1518 1517 1516 1515 1514 1513 1512 1512 1510 1510 1509 1509 1510 1509 1507 1507 1508 1508 1508 1508 1508 1507 1503 1506 1507 1506 1509 1510 1508 1507 1505 1504 1505 1504 1503 1503 1504 1503 1502 1498 1499 1504 1506 1506 1505 1505 1504 1503 1501 1500 1498
1558 1556 1556 1555 1553 1552 1551 1550 1548 1548 1546 1544 1542 1541 1540 1538 1536 1534 1532 1530 1528 1526 1524 1522 1520 1519 1518 1517 1517 1518 1518 1519 1520 1520 1520 1519 1518 1518 1517 1516 1516 1515 1514 1513 1512 1510 1510 1509 1509 1509 1508 1506 1506 1507 1507 1508 1510 1508 1505 1504 1507 1508 1507 1510 1510 1510 1508 1506 1506 1506 1504 1504 1504 1503 1503 1502 1500 1503 1506 1507 1507 1507 1506 1506 1504 1503 1501 1499
1557 1556 1556 1554 1553 1552 1551 1550 1548 1547 1546 1544 1542 1541 1540 1538 1536 1534 1532 1530 1528 1526 1524 1522 1521 1520 1519 1518 1518 1518 1519 1520 1521 1520 1520 1519 1518 1518 1517 1517 1516 1515 1514 1513 1512 1512 1510 1510 1508 1508 1507 1506 1505 1506 1506 1508 1510 1508 1504 1505 1508 1508 1509 1510 1511 1510 1508 1507 1506 1506 1505 1505 1504 1502 1504 1503 1502 1506 1508 1508 1508 1507 1507 1506 1505 1504 1502 1500
1557 1556 1555 1554 1553 1552 1551 1550 1548 1547 1546 1544 1542 1541 1539 1538 1536 1534 1532 1530 1528 1526 1524 1523 1521 1520 1520 1519 1519 1519 1519 1520 1520 1520 1519 1518 1518 1518 1517 1516 1516 1515 1514 1513 1513 1512 1511 1510 1508 1508 1506 1505 1506 1506 1506 1508 1508 1508 1506 1506 1509 1510 1510 1511 1510 1510 1508 1508 1507 1507 1506 1504 1503 1503 1504 1504 1505 1506 1507 1508 1508 1507 1507 1506 1505 1504 1503 1502
1557 1556 1554 1554 1552 1552 1551 1550 1548 1547 1546 1544 1542 1540 1539 1537 1535 1534 1532 1530 1528 1526 1524 1523 1521 1520 1520 1520 1520 1520 1520 1520 1520 1519 1518 1518 1518 1518 1517 1516 1516 1515 1514 1513 1513 1512 1511 1510 1509 1508 1506 1505 1506 1506 1506 1506 1506 1507 1506 1506 1510 1510 1510 1511 1510 1509 1508 1508 1507 1506 1504 1502 1502 1503 1504 1504 1505 1505 1506 1507 1506 1507 1506 1506 1506 1505 1504 1502
1557 1556 1554 1553 1552 1551 1550 1549 1548 1546 1545 1544 1542 1540 1538 1537 1535 1533 1532 1530 1528 1526 1524 1522 1521 1520 1520 1520 1520 1520 1521 1521 1520 1519 1518 1518 1518 1518 1516 1516 1516 1514 1514 1513 1512 1512 1511 1511 1510 1509 1507 1506 1507 1506 1507 1506 1505 1506 1506 1507 1509 1508 1509 1510 1509 1509 1509 1508 1507 1504 1502 1501 1502 1503 1503 1504 1505 1504 1505 1506 1506 1506 1506 1506 1507 1506 1505 1503
1556 1555 1554 1553 1552 1551 1550 1548 1547 1546 1545 1544 1542 1540 1538 1537 1535 1533 1532 1530 1528 1526 1524 1522 1521 1520 1520 1520 1520 1519 1521 1521 1520 1519 1518 1518 1518 1518 1517 1516 1515 1514 1514 1513 1512 1512 1511 1511 1510 1509 1508 1508 1507 1506 1506 1506 1505 1506 1506 1506 1506 1507 1508 1508 1508 1508 1509 1508 1506 1504 1501 1500 1502 1501 1502 1504 1504 1503 1504 1504 1506 1506 1506 1507 1507 1506 1506 1504
1556 1555 1554 1553 1552 1550 1549 1548 1547 1546 1544 1543 1542 1540 1538 1536 1535 1533 1532 1530 1528 1526 1524 1522 1521 1520 1520 1520 1519 1519 1521 1521 1520 1519 1518 1518 1518 1518 1517 1516 1515 1514 1513 1513 1512 1511 1511 1510 1509 1509 1508 1507 1506 1504 1504 1505 1504 1505 1506 1503 1502 1504 1507 1508 1508 1508 1508 1507 1506 1504 1499 1498 1500 1500 1500 1502 1502 1502 1503 1504 1505 1505 1506 1507 1507 1507 1506 1504
1556 1555 1554 1553 1552 1550 1549 1548 1546 1545 1544 1543 1541 1540 1538 1536 1534 1533 1531 1529 1528 1526 1524 1522 1521 1520 1520 1520 1520 1520 1521 1521 1520 1519 1519 1518 1518 1518 1517 1516 1515 1514 1513 1512 1512 1511 1510 1510 1509 1508 1507 1506 1504 1502 1503 1504 1504 1504 1504 1501 1498 1502 1507 1507 1506 1507 1506 1506 1506 1503 1498 1495 1496 1498 1499 1500 1502 1501 1502 1504 1505 1506 1507 1508 1508 1508 1507 1506
1556 1555 1554 1553 1552 1550 1549 1548 1546 1545 1544 1542 1541 1539 1537 1536 1534 1533 1531 1529 1528 1526 1524 1522 1521 1520 1521 1521 1521 1521 1521 1521 1520 1520 1519 1518 1518 1517 1517 1516 1514 1514 1512 1512 1511 1510 1510 1508 1508 1508 1507 1506 1503 1502 1502 1502 1504 1503 1502 1501 1498 1501 1506 1506 1504 1504 1505 1506 1504 1503 1502 1495 1491 1495 1498 1498 1500 1501 1502 1504 1505 1506 1508 1508 1509 1508 1508 1506
1556 1554 1553 1552 1552 1550 1549 1548 1546 1544 1543 1542 1540 1539 1537 1536 1534 1532 1530 1528 1527 1525 1523 1522 1521 1521 1521 1522 1522 1522 1521 1521 1521 1520 1519 1518 1518 1517 1516 1515 1514 1513 1512 1511 1510 1509 1509 1508 1508 1507 1506 1506 1503 1503 1501 1500 1502 1499 1500 1500 1496 1500 1504 1504 1504 1503 1503 1504 1502 1502 1504 1496 1488 1491 1494 1495 1498 1500 1502 1504 1506 1507 1508 1509 1509 1509 1508 1506
1555 1554 1553 1552 1551 1550 1548 1547 1546 1544 1543 1541 1540 1538 1536 1535 1533 1532 1530 1528 1526 1524 1522 1521 1521 1521 1522 1522 1522 1522 1522 1521 1521 1520 1520 1518 1518 1517 1515 1514 1513 1512 1511 1511 1510 1509 1508 1507 1507 1506 1505 1504 1502 1502 1496 1494 1497 1496 1500 1500 1496 1501 1503 1502 1505 1503 1502 1503 1501 1502 1503 1496 1490 1491 1492 1494 1497 1500 1502 1504 1506 1507 1508 1509 1509 1508 1508 1506
1554 1554 1552 1552 1550 1550 1548 1547 1545 1544 1542 1540 1539 1538 1536 1534 1532 1531 1529 1527 1526 1523 1522 1522 1521 1521 1521 1522 1522 1522 1522 1521 1521 1520 1520 1518 1518 1516 1514 1513 1512 1511 1510 1510 1509 1508 1507 1506 1506 1505 1504 1502 1500 1498 1494 1490 1492 1492 1497 1502 1502 1504 1504 1502 1504 1504 1503 1502 1501 1503 1504 1498 1492 1491 1494 1495 1497 1498 1502 1504 1506 1507 1508 1508 1509 1508 1508 1506
1554 1553 1552 1551 1550 1549 1548 1546 1544 1543 1542 1540 1538 1536 1534 1532 1530 1529 1528 1527 1525 1522 1522 1522 1521 1521 1521 1521 1521 1522 1521 1521 1521 1520 1520 1518 1517 1516 1514 1512 1511 1510 1510 1509 1508 1507 1506 1506 1505 1503 1501 1500 1497 1496 1498 1498 1497 1494 1497 1503 1503 1503 1504 1503 1504 1503 1503 1504 1502 1501 1502 1498 1492 1492 1495 1496 1497 1498 1500 1503 1505 1507 1508 1508 1509 1508 1508 1506
1553 1552 1551 1550 1550 1548 1547 1546 1544 1542 1541 1539 1537 1535 1533 1532 1530 1527 1526 1526 1524 1522 1521 1521 1521 1521 1521 1520 1520 1520 1520 1520 1520 1520 1519 1518 1516 1515 1514 1512 1510 1510 1509 1508 1508 1507 1507 1504 1503 1500 1496 1497 1498 1499 1504 1506 1506 1506 1505 1506 1505 1503 1504 1502 1500 1502 1502 1503 1501 1498 1498 1496 1492 1493 1496 1497 1497 1498 1500 1503 1506 1507 1508 1509 1508 1508 1507 1506
1552 1551 1550 1550 1549 1548 1547 1546 1544 1542 1540 1538 1536 1534 1532 1530 1528 1525 1525 1524 1523 1522 1522 1521 1521 1521 1520 1520 1520 1519 1518 1519 1519 1519 1518 1517 1516 1514 1513 1512 1510 1510 1508 1507 1507 1507 1506 1503 1501 1500 1498 1500 1504 1504 1506 1506 1507 1509 1508 1508 1508 1506 1502 1498 1496 1500 1503 1503 1499 1496 1497 1495 1492 1492 1496 1498 1498 1498 1501 1504 1506 1507 1508 1508 1508 1508 1507 1506
1552 1551 1550 1549 1548 1548 1547 1546 1544 1542 1540 1538 1535 1533 1530 1529 1526 1524 1524 1523 1522 1524 1523 1522 1521 1521 1520 1519 1519 1518 1518 1519 1519 1519 1518 1517 1516 1514 1512 1511 1510 1509 1508 1508 1508 1506 1507 1504 1500 1501 1503 1505 1507 1506 1506 1506 1506 1508 1507 1506 1504 1502 1499 1495 1496 1499 1502 1504 1500 1495 1494 1493 1490 1490 1495 1498 1498 1499 1502 1504 1506 1507 1507 1507 1506 1507 1506 1506
1551 1551 1550 1549 1548 1547 1546 1545 1544 1542 1540 1538 1536 1534 1534 1534 1532 1529 1526 1522 1521 1521 1521 1520 1520 1520 1519 1518 1518 1518 1518 1518 1518 1518 1518 1517 1516 1514 1512 1511 1510 1508 1508 1509 1508 1505 1506 1504 1501 1503 1506 1507 1508 1507 1507 1507 1506 1506 1506 1504 1501 1499 1497 1495 1497 1500 1502 1505 1501 1494 1494 1491 1487 1489 1495 1498 1498 1500 1502 1504 1506 1505 1505 1505 1505 1506 1506 1505
1550 1550 1549 1549 1548 1546 1546 1545 1544 1542 1541 1540 1538 1536 1536 1536 1535 1534 1532 1526 1520 1519 1519 1519 1518 1518 1518 1518 1518 1518 1518 1518 1518 1518 1518 1517 1516 1514 1513 1511 1510 1508 1508 1508 1506 1506 1506 1502 1502 1506 1507 1508 1508 1508 1508 1507 1506 1504 1502 1502 1501 1498 1498 1497 1496 1499 1501 1501 1497 1494 1494 1490 1484 1489 1495 1496 1498 1501 1503 1504 1504 1504 1504 1504 1504 1504 1503 1502
1550 1548 1549 1548 1547 1546 1545 1544 1544 1542 1542 1540 1538 1538 1537 1536 1535 1534 1534 1529 1521 1518 1518 1518 1518 1519 1518 1518 1518 1518 1518 1518 1518 1518 1517 1517 1516 1516 1514 1512 1511 1510 1508 1507 1509 1512 1508 1502 1504 1508 1508 1508 1507 1506 1507 1504 1502 1500 1500 1502 1501 1499 1504 1504 1499 1500 1499 1497 1496 1495 1493 1487 1486 1492 1494 1497 1499 1500 1502 1502 1503 1504 1504 1504 1502 1502 1501 1500
1548 1548 1548 1547 1546 1546 1544 1544 1543 1542 1542 1540 1539 1538 1536 1536 1535 1533 1532 1528 1521 1517 1517 1517 1517 1518 1518 1518 1518 1518 1519 1518 1518 1518 1518 1517 1517 1516 1515 1514 1514 1510 1508 1509 1512 1514 1509 1505 1507 1508 1508 1508 1506 1504 1504 1504 1501 1498 1500 1504 1503 1504 1510 1508 1503 1500 1495 1494 1496 1495 1490 1483 1486 1494 1493 1496 1499 1498 1500 1500 1501 1502 1502 1502 1500 1500 1500 1498
1546 1547 1546 1546 1546 1544 1544 1543 1542 1542 1541 1540 1539 1538 1536 1536 1534 1533 1531 1526 1520 1516 1516 1516 1517 1518 1518 1518 1518 1518 1519 1518 1518 1518 1517 1517 1517 1516 1515 1515 1514 1510 1509 1512 1514 1511 1507 1508 1509 1509 1509 1508 1508 1504 1502 1506 1504 1499 1502 1507 1508 1509 1510 1507 1504 1500 1495 1495 1492 1496 1499 1486 1479 1485 1489 1493 1496 1496 1498 1498 1499 1500 1499 1499 1498 1498 1498 1496
1545 1545 1545 1546 1545 1544 1543 1542 1541 1542 1540 1539 1538 1537 1536 1535 1534 1533 1530 1527 1520 1513 1514 1516 1516 1517 1518 1518 1518 1519 1518 1518 1518 1517 1517 1517 1516 1517 1516 1514 1514 1513 1512 1514 1514 1510 1508 1510 1511 1510 1510 1509 1508 1505 1504 1507 1506 1502 1506 1510 1510 1510 1509 1506 1505 1503 1499 1496 1490 1496 1506 1494 1478 1476 1482 1489 1491 1492 1495 1496 1496 1497 1496 1496 1496 1496 1495 1494
1543 1544 1544 1544 1544 1543 1542 1541 1542 1540 1539 1539 1538 1536 1536 1534 1534 1533 1530 1530 1521 1511 1513 1516 1516 1517 1517 1518 1518 1518 1519 1517 1516 1516 1516 1516 1516 1517 1517 1513 1513 1513 1514 1516 1515 1510 1509 1512 1512 1512 1512 1510 1507 1505 1506 1509 1507 1505 1508 1510 1508 1507 1507 1506 1505 1504 1497 1493 1491 1492 1498 1498 1485 1474 1475 1482 1486 1489 1491 1492 1493 1494 1494 1494 1494 1494 1492 1490
1542 1542 1542 1543 1543 1542 1542 1541 1541 1540 1539 1538 1536 1537 1536 1534 1535 1532 1534 1538 1523 1509 1512 1514 1516 1517 1516 1518 1518 1518 1518 1516 1516 1516 1515 1516 1516 1516 1516 1513 1513 1513 1514 1518 1516 1510 1509 1513 1513 1513 1513 1510 1507 1508 1509 1510 1508 1506 1508 1509 1506 1505 1505 1503 1502 1499 1494 1496 1496 1488 1491 1498 1486 1471 1473 1480 1481 1484 1487 1489 1490 1491 1492 1492 1491 1491 1489 1488
1540 1540 1540 1541 1541 1541 1541 1540 1540 1539 1539 1537 1537 1537 1534 1535 1534 1530 1537 1540 1519 1508 1513 1514 1515 1517 1517 1518 1517 1517 1518 1516 1516 1515 1515 1516 1515 1516 1516 1513 1514 1514 1514 1516 1514 1509 1510 1514 1513 1514 1514 1510 1509 1511 1511 1510 1508 1507 1508 1506 1504 1503 1501 1499 1498 1494 1496 1502 1499 1487 1487 1493 1482 1467 1470 1477 1477 1480 1484 1486 1488 1488 1490 1490 1490 1489 1487 1486
1538 1538 1539 1540 1540 1540 1540 1539 1539 1538 1538 1537 1537 1536 1535 1535 1532 1534 1544 1535 1514 1511 1515 1514 1516 1517 1517 1516 1515 1516 1516 1516 1516 1516 1516 1516 1515 1516 1515 1514 1516 1515 1514 1514 1512 1510 1511 1514 1513 1514 1513 1511 1512 1513 1512 1512 1509 1508 1508 1504 1500 1496 1492 1492 1491 1492 1500 1499 1489 1481 1482 1489 1486 1470 1465 1472 1476 1480 1484 1484 1486 1488 1489 1490 1489 1487 1486 1485
1536 1536 1537 1537 1538 1538 1538 1538 1538 1537 1537 1537 1536 1536 1536 1533 1531 1539 1541 1524 1512 1514 1514 1514 1517 1516 1516 1517 1515 1514 1514 1514 1515 1515 1514 1514 1514 1514 1514 1514 1514 1513 1513 1511 1511 1510 1511 1512 1511 1512 1513 1512 1513 1512 1512 1512 1510 1508 1506 1501 1498 1494 1489 1489 1490 1498 1507 1496 1482 1482 1486 1491 1490 1474 1466 1474 1478 1481 1485 1486 1487 1489 1488 1488 1487 1486 1486 1486
1534 1534 1535 1535 1536 1536 1537 1537 1536 1536 1536 1535 1536 1536 1534 1535 1535 1532 1524 1514 1514 1515 1512 1515 1518 1516 1518 1520 1517 1515 1514 1514 1513 1514 1514 1514 1515 1513 1514 1514 1512 1515 1511 1505 1508 1510 1508 1509 1509 1512 1513 1513 1513 1511 1510 1510 1509 1508 1503 1502 1504 1502 1497 1496 1494 1497 1497 1488 1482 1488 1494 1493 1483 1469 1468 1476 1480 1482 1485 1486 1488 1489 1488 1486 1486 1486 1486 1485
1531 1532 1533 1533 1534 1534 1535 1536 1535 1536 1535 1534 1536 1534 1534 1541 1536 1521 1513 1512 1514 1513 1512 1516 1517 1517 1520 1519 1515 1514 1516 1514 1511 1513 1515 1517 1517 1514 1515 1516 1516 1519 1513 1506 1508 1508 1504 1506 1510 1512 1511 1512 1512 1509 1507 1506 1506 1506 1504 1505 1508 1509 1512 1508 1498 1492 1488 1483 1482 1488 1497 1494 1476 1463 1464 1472 1479 1482 1484 1486 1488 1488 1487 1486 1486 1486 1484 1483
1529 1530 1531 1531 1532 1533 1533 1534 1534 1534 1534 1534 1535 1533 1538 1542 1529 1515 1513 1511 1511 1514 1515 1516 1517 1518 1519 1516 1512 1512 1514 1512 1510 1514 1516 1516 1517 1512 1512 1516 1516 1516 1515 1512 1510 1507 1506 1504 1506 1510 1509 1510 1511 1510 1509 1507 1506 1508 1506 1508 1508 1510 1515 1512 1502 1497 1495 1492 1489 1494 1500 1490 1474 1465 1465 1472 1480 1481 1482 1485 1486 1486 1487 1487 1486 1485 1484 1482
1526 1527 1528 1528 1530 1530 1531 1532 1532 1532 1534 1533 1532 1534 1538 1533 1519 1514 1514 1510 1510 1514 1514 1516 1517 1517 1514 1511 1511 1512 1513 1511 1511 1514 1514 1512 1512 1508 1505 1510 1514 1514 1514 1514 1508 1506 1506 1501 1504 1510 1509 1510 1511 1510 1512 1510 1508 1510 1509 1510 1510 1508 1509 1510 1506 1506 1510 1509 1499 1496 1493 1479 1470 1470 1471 1476 1480 1479 1482 1484 1484 1486 1485 1486 1485 1484 1483 1482
1524 1525 1526 1526 1527 1528 1529 1530 1530 1531 1531 1531 1532 1532 1527 1518 1512 1512 1510 1508 1511 1512 1514 1515 1514 1514 1510 1506 1509 1513 1513 1512 1512 1512 1510 1507 1506 1504 1502 1506 1509 1510 1510 1508 1504 1504 1504 1501 1508 1514 1510 1511 1513 1511 1513 1511 1508 1510 1510 1510 1511 1511 1512 1514 1514 1511 1519 1519 1498 1487 1484 1472 1468 1472 1472 1476 1479 1478 1481 1482 1483 1485 1484 1484 1484 1482 1482 1480
1523 1523 1523 1523 1524 1526 1527 1528 1528 1530 1529 1529 1530 1524 1516 1510 1507 1507 1508 1509 1511 1511 1514 1516 1511 1508 1507 1503 1504 1510 1513 1512 1512 1510 1507 1505 1502 1500 1502 1505 1506 1506 1506 1506 1503 1504 1505 1503 1507 1511 1510 1513 1514 1512 1513 1513 1511 1509 1509 1510 1512 1515 1516 1520 1526 1521 1518 1512 1488 1477 1480 1475 1472 1474 1473 1476 1478 1478 1479 1480 1482 1483 1482 1483 1482 1481 1480 1478
1521 1521 1520 1520 1522 1523 1524 1526 1526 1527 1528 1527 1524 1518 1511 1507 1504 1504 1506 1508 1510 1511 1515 1515 1509 1504 1505 1504 1500 1504 1512 1510 1507 1508 1506 1502 1499 1496 1498 1503 1505 1505 1506 1508 1506 1505 1508 1506 1507 1511 1513 1513 1515 1515 1512 1512 1512 1510 1510 1511 1512 1517 1517 1518 1529 1527 1515 1506 1488 1475 1476 1476 1470 1470 1472 1475 1476 1478 1479 1480 1481 1480 1480 1480 1479 1478 1477 1474
1519 1519 1516 1516 1519 1520 1522 1523 1524 1525 1526 1523 1520 1514 1506 1502 1502 1503 1504 1506 1508 1511 1511 1509 1506 1502 1501 1502 1500 1502 1508 1506 1502 1505 1503 1498 1496 1494 1494 1498 1502 1506 1506 1508 1508 1507 1509 1509 1508 1512 1514 1514 1514 1513 1508 1508 1512 1513 1513 1512 1511 1516 1516 1513 1518 1519 1512 1508 1500 1487 1480 1473 1467 1466 1471 1475 1476 1478 1480 1479 1479 1479 1478 1478 1477 1476 1474 1471
1517 1517 1512 1512 1516 1517 1518 1521 1522 1523 1520 1515 1512 1507 1501 1500 1500 1501 1503 1504 1506 1507 1506 1503 1504 1502 1498 1497 1498 1499 1501 1500 1499 1500 1499 1496 1492 1492 1492 1494 1499 1506 1508 1509 1510 1508 1509 1508 1507 1512 1517 1515 1510 1506 1502 1502 1506 1509 1510 1511 1512 1514 1516 1514 1514 1513 1513 1514 1510 1504 1488 1470 1466 1471 1474 1475 1476 1478 1480 1478 1478 1477 1477 1477 1476 1474 1472 1469
1515 1514 1508 1509 1513 1513 1516 1518 1518 1517 1514 1508 1505 1501 1498 1499 1498 1499 1501 1503 1503 1502 1501 1500 1500 1498 1496 1496 1496 1497 1498 1498 1497 1498 1496 1493 1491 1490 1490 1491 1495 1502 1507 1511 1511 1509 1508 1507 1506 1510 1514 1510 1504 1503 1504 1503 1502 1503 1503 1505 1508 1510 1513 1518 1516 1512 1518 1518 1510 1510 1497 1471 1466 1473 1472 1474 1477 1478 1478 1478 1476 1476 1476 1475 1474 1473 1471 1468
1512 1510 1505 1507 1510 1510 1514 1514 1511 1511 1507 1501 1498 1496 1497 1496 1496 1497 1499 1501 1502 1500 1500 1499 1497 1495 1494 1494 1495 1495 1496 1495 1494 1495 1493 1489 1487 1487 1488 1491 1494 1497 1502 1507 1508 1506 1507 1508 1507 1504 1503 1504 1504 1504 1507 1506 1503 1503 1502 1500 1502 1504 1508 1515 1513 1510 1518 1516 1506 1512 1506 1474 1462 1470 1472 1474 1477 1476 1478 1477 1475 1475 1474 1474 1473 1471 1470 1467
1507 1505 1504 1505 1506 1508 1511 1509 1506 1505 1500 1494 1494 1494 1494 1494 1494 1495 1496 1498 1500 1499 1499 1496 1493 1493 1493 1493 1495 1494 1494 1493 1489 1490 1490 1485 1486 1490 1491 1492 1494 1495 1499 1503 1505 1506 1507 1509 1509 1503 1497 1501 1507 1506 1505 1506 1506 1504 1502 1500 1501 1500 1501 1505 1504 1506 1513 1509 1506 1516 1504 1469 1460 1470 1472 1473 1474 1474 1475 1475 1474 1475 1473 1473 1472 1469 1467 1465
1502 1502 1502 1503 1504 1505 1506 1502 1499 1498 1494 1493 1494 1492 1491 1491 1490 1490 1491 1493 1494 1494 1494 1491 1488 1490 1490 1490 1492 1490 1491 1492 1486 1484 1484 1483 1486 1492 1493 1492 1494 1495 1496 1498 1500 1503 1504 1504 1507 1508 1502 1500 1502 1504 1504 1506 1506 1502 1497 1497 1499 1499 1502 1505 1506 1511 1514 1504 1504 1512 1494 1464 1462 1470 1469 1470 1471 1470 1472 1473 1473 1474 1472 1472 1470 1467 1465 1462
1500 1500 1499 1499 1500 1500 1498 1494 1493 1492 1490 1490 1490 1487 1488 1488 1484 1485 1487 1488 1487 1487 1488 1486 1485 1487 1487 1489 1490 1486 1486 1488 1484 1482 1483 1484 1489 1494 1493 1494 1495 1494 1495 1496 1496 1499 1500 1498 1498 1501 1500 1493 1488 1489 1494 1498 1500 1498 1494 1495 1497 1499 1502 1504 1508 1512 1510 1499 1496 1497 1483 1465 1464 1468 1467 1468 1468 1468 1470 1472 1472 1472 1472 1470 1469 1466 1464 1460
1496 1494 1494 1497 1498 1497 1493 1491 1492 1490 1486 1488 1485 1481 1483 1482 1478 1481 1484 1482 1481 1482 1482 1482 1483 1486 1486 1487 1488 1486 1484 1484 1484 1483 1483 1486 1491 1494 1494 1494 1495 1495 1496 1497 1497 1498 1500 1498 1492 1488 1485 1479 1475 1478 1484 1489 1492 1494 1493 1492 1494 1496 1498 1502 1507 1504 1501 1499 1490 1482 1477 1472 1467 1468 1468 1467 1467 1468 1468 1470 1471 1471 1470 1468 1467 1464 1462 1458
1489 1484 1483 1490 1494 1492 1491 1490 1490 1487 1484 1485 1482 1474 1475 1476 1476 1477 1478 1476 1476 1478 1479 1479 1480 1482 1482 1483 1486 1483 1480 1482 1482 1480 1480 1485 1491 1494 1495 1495 1496 1497 1497 1498 1499 1500 1501 1500 1493 1487 1482 1477 1476 1480 1485 1487 1487 1488 1490 1490 1490 1493 1496 1501 1502 1494 1496 1501 1487 1471 1474 1476 1468 1466 1466 1465 1466 1467 1467 1469 1470 1468 1467 1466 1463 1461 1458 1455
1481 1474 1474 1479 1480 1480 1482 1482 1482 1483 1482 1482 1478 1471 1472 1474 1473 1471 1471 1473 1474 1474 1477 1476 1472 1472 1474 1477 1482 1479 1476 1481 1482 1478 1478 1484 1489 1494 1496 1496 1497 1498 1498 1500 1500 1500 1502 1498 1491 1488 1486 1482 1481 1482 1484 1486 1486 1484 1485 1486 1486 1488 1492 1495 1492 1488 1491 1492 1478 1468 1472 1472 1466 1464 1464 1464 1466 1466 1467 1468 1468 1466 1466 1463 1460 1458 1455 1452
1473 1471 1470 1473 1470 1467 1469 1471 1474 1478 1477 1478 1475 1469 1470 1471 1466 1463 1466 1472 1472 1471 1472 1468 1462 1464 1469 1472 1476 1473 1470 1476 1476 1470 1473 1480 1485 1490 1494 1496 1497 1497 1499 1501 1500 1501 1502 1497 1492 1491 1489 1485 1484 1484 1484 1486 1486 1482 1482 1482 1482 1483 1485 1486 1484 1484 1484 1481 1472 1471 1472 1468 1464 1464 1462 1464 1466 1465 1467 1467 1466 1465 1463 1460 1458 1455 1452 1450
1464 1463 1464 1468 1466 1463 1464 1465 1468 1471 1471 1472 1468 1462 1464 1464 1457 1456 1460 1463 1464 1465 1466 1462 1456 1460 1466 1467 1469 1464 1458 1462 1462 1460 1468 1477 1482 1486 1488 1490 1492 1496 1499 1500 1499 1501 1502 1498 1495 1495 1494 1489 1486 1486 1486 1486 1485 1482 1479 1478 1479 1480 1479 1478 1477 1479 1481 1478 1473 1473 1472 1466 1461 1461 1461 1462 1464 1464 1466 1465 1464 1463 1461 1459 1456 1453 1450 1449
1456 1457 1460 1465 1461 1458 1460 1460 1462 1466 1462 1457 1455 1455 1458 1454 1448 1452 1456 1451 1451 1454 1455 1454 1455 1460 1462 1462 1460 1456 1452 1457 1460 1459 1465 1471 1474 1478 1480 1481 1485 1490 1495 1497 1496 1497 1499 1498 1496 1498 1499 1491 1485 1488 1488 1486 1486 1482 1475 1474 1476 1475 1472 1468 1467 1468 1472 1474 1472 1472 1470 1463 1457 1458 1460 1460 1462 1463 1464 1463 1462 1462 1460 1458 1455 1452 1450 1447
1452 1456 1458 1461 1456 1451 1452 1453 1458 1459 1446 1438 1444 1447 1445 1442 1442 1452 1452 1443 1440 1445 1447 1450 1454 1457 1457 1454 1452 1452 1454 1459 1462 1463 1466 1469 1471 1474 1476 1478 1479 1483 1488 1492 1493 1493 1494 1496 1496 1499 1500 1493 1489 1491 1491 1494 1494 1478 1463 1464 1468 1465 1463 1461 1460 1460 1463 1466 1468 1467 1462 1456 1454 1457 1458 1458 1460 1462 1462 1462 1462 1461 1458 1456 1453 1451 1449 1446